カタログに戻る

FENGYUN 1C DEB

運用中SSO
NORAD 30634·DEBRIS·🇨🇳 China

打ち上げ May 10, 1999 から Taiyuan Satellite Launch Center

Loading…

次のパス (今後24時間)

TLE

最新Source: Space-Track

元期: Sep 14, 2026, 11:53 UTC

1 30634U 99025ANR 26257.49581074  .00002379  00000-0  12473-2 0  9991
2 30634  99.3099 255.0751 0119945  48.8072 101.3672 14.11603374995058

AllMySatでFENGYUN 1C DEBをリアルタイム追跡

Download on the App Store